Location: Newark
(47.4000°N, 7.5833°E)
Time: 02:27:38
(UTC+00:00)

Envisat - Visible Passes

Search period start: 29 January 2020 00:00
Search period end: 08 February 2020 00:00
Orbit: 764 x 766 km, 98.1° (Epoch: 28 January)

Date Brightness Start Highest point End Pass type
(mag) Time Alt. Az. Time Alt. Az. Time Alt. Az.
29 Jan 5.2 05:24:54 10° NE 05:29:17 28° E 05:33:39 10° SSE visible
29 Jan 5.5 18:22:34 10° SW 18:26:34 23° W 18:30:35 10° NW visible
30 Jan 6.2 04:49:31 10° ENE 04:52:06 14° E 04:54:40 10° ESE visible
30 Jan 3.0 06:26:40 10° NNE 06:31:47 84° WNW 06:36:52 10° SSW visible
30 Jan 4.1 17:44:37 10° S 17:49:30 47° W 17:54:26 10° NNW visible
31 Jan 4.2 05:50:01 10° NNE 05:54:56 47° E 05:59:50 10° S visible
31 Jan 3.0 17:07:35 10° SSE 17:12:40 84° ENE 17:17:46 10° NNW visible
31 Jan 6.2 18:49:48 10° WSW 18:52:21 14° W 18:54:55 10° WNW visible
01 Feb 5.6 05:13:51 10° NE 05:17:53 23° E 05:21:54 10° SE visible
01 Feb 5.2 18:10:49 10° SSW 18:15:10 28° W 18:19:33 10° NW visible
02 Feb 6.4 04:39:22 10° ENE 04:40:38 11° E 04:41:54 10° E visible
02 Feb 3.2 06:15:22 10° NNE 06:20:30 79° ESE 06:25:35 10° S visible
02 Feb 3.7 17:33:10 10° S 17:38:10 59° W 17:43:13 10° NNW visible
03 Feb 4.6 05:38:50 10° NNE 05:43:35 38° E 05:48:18 10° SSE visible
03 Feb 5.9 18:37:37 10° SW 18:40:55 17° W 18:44:14 10° NW visible
04 Feb 5.9 05:02:55 10° NE 05:06:28 19° E 05:10:01 10° SE visible
04 Feb 4.8 17:59:10 10° SSW 18:03:47 35° W 18:08:27 10° NNW visible
05 Feb 3.6 06:04:06 10° NNE 06:09:11 64° ESE 06:14:13 10° S visible
05 Feb 3.3 17:21:47 10° S 17:26:51 73° WSW 17:31:58 10° NNW visible
06 Feb 5.1 05:27:42 10° NNE 05:32:13 31° E 05:36:41 10° SSE visible
06 Feb 5.7 18:25:40 10° SW 18:29:30 21° W 18:33:21 10° NW visible
07 Feb 6.2 04:52:08 10° NE 04:55:03 15° E 04:57:56 10° ESE visible
07 Feb 4.4 17:47:36 10° S 17:52:25 43° W 17:57:17 10° NNW visible
